This is the latest recevied weather packets stored in our database for station/object KC1BRV. If no packets are shown the sender has not sent any weather packets the latest 10 day(s).
| Time | Temp. | Humidity | Pressure | Rain* | Wind** | Luminosity | Snow |
|---|---|---|---|---|---|---|---|
| 1788521368 | 20.56° C | 99% | 1011.5 hPa | 0 mm | - | 45 W/m² | - |
| 1788521064 | 20.56° C | 99% | 1011.3 hPa | 0 mm | - | 41 W/m² | - |
| 1788520771 | 20.56° C | 99% | 1011.5 hPa | 0 mm | - | 34 W/m² | - |
| 1788520455 | 20.56° C | 99% | 1011.3 hPa | 0 mm | - | 28 W/m² | - |
| 1788520151 | 20.56° C | 99% | 1011.2 hPa | 0 mm | - | 32 W/m² | - |
| 1788519849 | 20.56° C | 99% | 1011.3 hPa | 0 mm | - | 26 W/m² | - |
| 1788519545 | 20.56° C | 99% | 1011.2 hPa | 0 mm | - | 24 W/m² | - |
| 1788519240 | 20.56° C | 99% | 1011.3 hPa | 0 mm | - | 15 W/m² | - |
| 1788518935 | 20.56° C | 99% | 1011.3 hPa | 0 mm | - | 12 W/m² | - |
| 1788518629 | 20.56° C | 99% | 1011.3 hPa | 0 mm | - | 11 W/m² | - |
| 1788518327 | 20.56° C | 99% | 1011.2 hPa | 0 mm | - | 9 W/m² | - |
| 1788518026 | 20.56° C | 99% | 1011.1 hPa | 0 mm | - | 7 W/m² | - |
| 1788517722 | 20.56° C | 99% | 1011.1 hPa | 0 mm | - | 6 W/m² | - |
| 1788517417 | 20.56° C | 99% | 1011.2 hPa | 0 mm | - | 3 W/m² | - |
| 1788517113 | 20.56° C | 99% | 1011.1 hPa | 0 mm | - | 2 W/m² | - |
| 1788516810 | 20.56° C | 99% | 1011 hPa | 0 mm | - | 1 W/m² | - |
| 1788516505 | 20.56° C | 99% | 1011 hPa | 0 mm | - | 0 W/m² | - |
| 1788516201 | 20.56° C | 99% | 1011.1 hPa | 0 mm | - | 0 W/m² | - |
| 1788515896 | 20.56° C | 99% | 1010.9 hPa | 0 mm | - | 0 W/m² | - |
| 1788515590 | 20.56° C | 99% | 1010.9 hPa | 0 mm | - | 0 W/m² | - |
| 1788515286 | 20.56° C | 99% | 1010.8 hPa | 0 mm | - | 0 W/m² | - |
| 1788514980 | 20.56° C | 99% | 1010.7 hPa | 0 mm | - | 0 W/m² | - |
| 1788514677 | 20.56° C | 99% | 1010.6 hPa | 0 mm | - | 0 W/m² | - |
| 1788514376 | 20.56° C | 99% | 1010.6 hPa | 0 mm | - | 0 W/m² | - |
| 1788514072 | 20.56° C | 99% | 1010.7 hPa | 0 mm | - | 0 W/m² | - |
* Rain latest hour (hover to see other rain measurements)
** Current wind speed in m/s (hover to see current wind gust speed)